Lewiston, WA

1:10 AM PDT on May 23, 2017 (GMT -0700)
Lewiston-Nez Perce County

Weather History for KLWS - May, 2013

Change the Weather History Date:

Monday, May 13, 2013

  Actual Average Record
Temperature  
Mean Temperature 69 °F 58 °F  
Max Temperature 82 °F 70 °F 97 °F (1931)
Min Temperature 55 °F 46 °F 32 °F (1955)
Degree Days  
Heating Degree Days 0 8  
Month to date heating degree days 34 119  
Since 1 July heating degree days 4458 4999  
Cooling Degree Days 4 1  
Month to date cooling degree days 57 10  
Year to date cooling degree days 57 12  
Growing Degree Days 18 (Base 50)    
Moisture  
Dew Point 47 °F    
Average Humidity 56    
Maximum Humidity 77    
Minimum Humidity 35    
Precipitation  
Precipitation 0.04 in 0.05 in 0.57 in (1885)
Month to date precipitation 0.04 0.64  
Year to date precipitation 3.05 4.97  
Snow  
Snow 0.00 in 0.00 in 0.00 in (1995)
Month to date snowfall 0.0 0.0  
Since 1 July snowfall 2.6 10.5  
Snow Depth 0.00 in    
Sea Level Pressure  
Sea Level Pressure 29.98 in    
Wind  
Wind Speed 8 mph (WNW)    
Max Wind Speed 33 mph    
Max Gust Speed 47 mph    
Visibility 10 miles    
Events Rain    
T = Trace of Precipitation, MM = Missing Value Source: NWS Daily Summary

Daily Weather History Graph

Daily Weather History Graph

Search for Another Location

Airport or City:

Trip Planner

Search our weather history database for the weather conditions in past years. The results will help you decide how hot, cold, wet, or windy it might be!

Date:

Astronomy

May. 13, 2013 Rise Set
Actual Time 5:16 AM PDT 8:12 PM PDT
Civil Twilight 4:41 AM PDT 8:48 PM PDT
Nautical Twilight 3:56 AM PDT 9:33 PM PDT
Astronomical Twilight 3:03 AM PDT 10:27 PM PDT
Moon 8:05 AM PDT (5/13) 11:25 PM PDT (5/13)
Length of Visible Light 16h 06m
Length of Day
14h 56m
Waxing Crescent, 13% of the Moon is Illuminated
May 13
Waxing Crescent
May 17
First Quarter
May 24
Full
May 31
Last Quarter
Jun 8
New

Hourly Weather History & Observations

Time (PDT) Temp. Dew Point Humidity Pressure Visibility Wind Dir Wind Speed Gust Speed Precip Events Conditions
12:56 AM 72.0 °F 46.9 °F 41% 29.97 in 10.0 mi NNW 8.1 mph - N/A   Overcast
1:56 AM 71.1 °F 46.9 °F 42% 29.96 in 10.0 mi NW 4.6 mph - N/A   Overcast
2:56 AM 69.1 °F 46.9 °F 45% 29.97 in 10.0 mi NW 3.5 mph - N/A   Clear
3:56 AM 63.0 °F 48.0 °F 58% 29.96 in 10.0 mi SSW 4.6 mph - N/A   Mostly Cloudy
4:56 AM 64.0 °F 48.0 °F 56% 29.97 in 10.0 mi SSE 3.5 mph - N/A   Overcast
5:56 AM 64.9 °F 48.9 °F 56% 29.97 in 10.0 mi Calm Calm - N/A   Mostly Cloudy
6:56 AM 66.2 °F 50.0 °F 56% 30.00 in 10.0 mi SE 4.6 mph - N/A   Mostly Cloudy
7:56 AM 71.1 °F 50.0 °F 47% 29.97 in 10.0 mi ENE 3.5 mph - N/A   Scattered Clouds
8:56 AM 71.1 °F 48.0 °F 44% 29.96 in 10.0 mi NNW 5.8 mph - N/A   Mostly Cloudy
9:56 AM 73.9 °F 48.9 °F 41% 29.95 in 10.0 mi Calm Calm - N/A   Partly Cloudy
10:56 AM 77.0 °F 48.9 °F 37% 29.92 in 10.0 mi NE 3.5 mph - N/A   Clear
11:56 AM 79.0 °F 48.9 °F 35% 29.89 in 10.0 mi Variable 6.9 mph - N/A   Clear
1:56 PM 75.0 °F 53.1 °F 46% 29.87 in 10.0 mi WNW 13.8 mph 27.6 mph N/A   Mostly Cloudy
2:56 PM 69.1 °F 50.0 °F 51% 29.87 in 10.0 mi WNW 29.9 mph 39.1 mph N/A   Mostly Cloudy
3:56 PM 64.0 °F 44.1 °F 48% 29.95 in 10.0 mi WNW 25.3 mph 35.7 mph N/A   Overcast
4:56 PM 55.9 °F 48.9 °F 77% 30.01 in 5.0 mi NW 11.5 mph 18.4 mph 0.03 in Rain Light Rain
5:56 PM 57.0 °F 51.1 °F 81% 30.00 in 10.0 mi SE 3.5 mph - 0.01 in   Overcast
6:56 PM 59.0 °F 52.0 °F 78% 30.00 in 10.0 mi SSE 8.1 mph - N/A   Clear
7:56 PM 57.9 °F 50.0 °F 75% 30.02 in 10.0 mi South 4.6 mph - N/A   Clear
8:56 PM 57.9 °F 46.9 °F 67% 30.04 in 10.0 mi Variable 3.5 mph - N/A   Partly Cloudy
9:56 PM 61.0 °F 42.1 °F 50% 30.06 in 10.0 mi WNW 16.1 mph 29.9 mph N/A   Partly Cloudy
10:56 PM 59.0 °F 39.0 °F 48% 30.09 in 10.0 mi West 17.3 mph 28.8 mph N/A   Scattered Clouds
11:56 PM 57.0 °F 39.0 °F 51% 30.10 in 10.0 mi West 10.4 mph 18.4 mph N/A   Overcast